Hourly Data Report for September 03, 2017

All times are specified in Local Standard Time (LST). Add 1 hour to adjust for Daylight Saving Time where and when it is observed.

MONCTON INTL A
NEW BRUNSWICK

46°06'44.000" N
64°40'43.000" W
70.70 m
8103201
71705
YQM

Download Data

Hourly Data (September 2017)
Hourly Data Report for September 3, 2017
Temp Definition
°C
Dew Point Temp Definition
°C
Rel Hum Definition
%
Wind Dir Definition
10's deg

Wind Spd Definition
km/h
Visibility Definition
km
Stn Press Definition
kPa
Hmdx Definition


Wind Chill Definition


Weather Definition


TIME
00:00 Legend Double Dagger 8.1 7.4 95 20 9 24.1 101.41     LegendNANA
01:00 Legend Double Dagger 8.5 6.9 89 21 9 24.1 101.43     LegendNANA
02:00 Legend Double Dagger 6.8 5.8 93 21 4 24.1 101.44     Mainly Clear
03:00 Legend Double Dagger 6.9 5.9 93 22 8 24.1 101.44     LegendNANA
04:00 Legend Double Dagger 7.1 6.7 97 17 5 24.1 101.46     LegendNANA
05:00 Legend Double Dagger 6.3 6.0 98 24 9 9.7 101.48     Fog
06:00 Legend Double Dagger 5.8 5.4 97 22 5 1.2 101.51     Fog
07:00 Legend Double Dagger 8.2 7.0 92 17 4 24.1 101.53     LegendNANA
08:00 Legend Double Dagger 11.8 8.3 79 17 5 24.1 101.54     Mostly Cloudy
09:00 Legend Double Dagger 14.9 10.1 73 18 6 24.1 101.58     LegendNANA
10:00 Legend Double Dagger 17.8 10.1 60 17 7 24.1 101.54     LegendNANA
11:00 Legend Double Dagger 19.3 9.5 53 15 15 24.1 101.47     Mostly Cloudy
12:00 Legend Double Dagger 19.6 8.2 47 16 18 24.1 101.37     LegendNANA
13:00 Legend Double Dagger 19.4 8.3 48 16 19 24.1 101.30     LegendNANA
14:00 Legend Double Dagger 18.9 9.0 52 14 21 24.1 101.27     Mostly Cloudy
15:00 Legend Double Dagger 18.6 8.2 50 16 22 24.1 101.22     LegendNANA
16:00 Legend Double Dagger 18.9 9.0 52 17 24 24.1 101.16     LegendNANA
17:00 Legend Double Dagger 17.2 9.5 60 17 23 24.1 101.10     Mostly Cloudy
18:00 Legend Double Dagger 16.2 9.9 66 16 21 24.1 101.06     LegendNANA
19:00 Legend Double Dagger 15.2 9.9 70 14 12 24.1 100.93     LegendNANA
20:00 Legend Double Dagger 14.7 10.0 73 14 16 24.1 100.86     Cloudy
21:00 Legend Double Dagger 14.0 10.1 77 13 16 24.1 100.73     LegendNANA
22:00 Legend Double Dagger 13.7 10.2 79 13 24 24.1 100.59     Rain
23:00 Legend Double Dagger 12.4 11.1 92 11 17 16.1 100.47     Rain

Notes on Data Quality.

Legend

  • E = Estimated
  • M = Missing
  • NA = Not Available
  • ‡ = Partner data that is not subject to review by the National Climate Archives
Date modified: